STARLINK-5671 (55339 NORAD) Tracking and Keplerian Element Data

This shows tracking and keplerian element data for the satellite.

Feedback or suggestion? Click here.




ElementValue
Catalog55339
NameSTARLINK-5671
Epoch Orbit1598
Epoch Day126.61438408
Epoch Year2023
RAAN181.1372
Inclination43.0006
Eccentricity0.0001672
Argument of Perigee277.2546
Mean Anonmoly82.8106
Mean Motion15.02542927
Decay Rate7.09E-06
L11 55339U 23013J 23126.61438408 .00000709 00000+0 67509-4 0 9998
L22 55339 43.0006 181.1372 0001672 277.2546 82.8106 15.02542927 15987



Live tracking and technical data element details for STARLINK-5671 (NORAD 55339). STARLINK-5671 can be tracked NOW for your location showing map with azimuth and elevation plus other details from your city location.







IsCatalogInMostPopularTable: catalog: 55339, numindb: -1

Insert: records affected: 1


GetName: 55339 STARLINK-5671

Hit Count: inserted at: Mon, 05 Jun 2023 19:08:46 GMT